Location: Ch�teau-Arnoux
(44.0814°N, 6.0027°E)
Time: 13:24:07
(UTC+00:00)

Meteor 2-2 Rocket - Pass Details

Date: 15 November 2019
Orbit: 852 x 929 km, 81.3° (Epoch: 12 December)

Event Time Altitude Azimuth Distance (km) Brightness Sun altitude
Exits shadow 04:14:28 - 348° (NNW) 2,659 6.6 -24.4°
Reaches altitude 10° 04:14:54 10° 347° (NNW) 2,495 6.5 -24.3°
Maximum altitude 04:20:32 80° 262° (W) 870 4.1 -23.3°
Drops below altitude 10° 04:26:09 10° 176° (S) 2,478 6.7 -22.3°
Sets 04:28:33 0° 175° (S) 3,415 7.5 -21.9°
